Weather observations for the past three days for
Woodward, West Woodward Airport
Metric (Imperial)
Date Time (cdt) Wind (kph) Vis. (km) Weather Sky Cond. Temperature (ºC) Relative Humidity Wind Chill (°C) Heat Index (°C) Pressure Precipitation (cm)
Air Dwpt 6 hour altimeter (cm) sea level (mb) 1 hr 3 hr 6 hr
Max. Min.
05 02:30 S 22 G 28 16.09 Fair CLR 28.9 15.3 44% 29 76.17 0.0
05 02:10 S 22 G 30 16.09 Fair CLR 29 15.3 43% 29 76.17 0.0
05 01:50 S 24 16.09 Fair CLR 29.2 15.2 43% 29 76.17 0.0
05 01:30 S 22 G 30 16.09 Fair CLR 29.4 15.3 42% 29 76.17 0.0
05 01:10 S 22 G 31 16.09 Fair CLR 29.4 15.5 43% 29 76.17 0.0
05 00:50 S 19 16.09 Fair CLR 29.5 15.5 36.6 29.5 43% 29 76.15 0.0
05 00:30 S 22 G 30 16.09 Fair CLR 29.9 15.5 42% 30 76.12 0.0
05 00:10 S 26 G 37 16.09 Fair CLR 30.4 15.5 40% 30 76.12 0.0
04 23:50 SE 22 16.09 Fair CLR 30.7 15.5 40% 31 76.12 0.0
04 23:30 SE 22 16.09 Fair CLR 31 15.2 38% 31 76.12 0.0
04 23:10 SE 19 16.09 Fair CLR 30.9 15 38% 31 76.15 0.0
04 22:50 SE 17 16.09 Fair CLR 31 14.8 37% 31 76.15 0.0
04 22:30 SE 13 16.09 Fair CLR 31.1 14.6 37% 31 76.15 0.0
04 22:10 SE 15 16.09 Fair CLR 30.9 14.6 37% 30 76.15 0.0
04 21:50 SE 13 16.09 Fair CLR 31 14.5 37% 30 76.12 0.0
04 21:30 SE 13 16.09 Fair CLR 31.5 14.3 35% 31 76.07 0.0
04 21:10 SE 15 16.09 Fair CLR 31.9 14.5 35% 31 76.05 0.0
04 20:50 SE 15 16.09 Fair CLR 32.1 14.4 34% 31 76.02 0.0
04 20:30 SE 13 16.09 Fair CLR 32.6 14.3 33% 32 76.02 0.0
04 20:10 SE 13 16.09 Fair CLR 33.5 14.3 31% 33 76 0.0
04 19:50 SE 13 16.09 Fair CLR 34.5 14.3 30% 34 75.97 0.0
04 19:30 SE 22 16.09 Fair CLR 35.5 14.4 28% 35 75.95 0.0
04 19:10 SE 19 16.09 Fair CLR 36.2 14.3 27% 36 75.95 0.0
04 18:50 SE 20 16.09 Fair CLR 36.9 14.5 39 35 26% 37 75.95 0.0
04 18:30 SE 22 16.09 Fair CLR 37.4 14.4 25% 37 75.92 0.0
04 18:10 SE 22 G 31 16.09 Fair CLR 37.6 14.5 25% 37 75.92 0.0
04 17:50 SE 20 G 30 16.09 Fair CLR 38.1 14.5 24% 38 75.92 0.0
04 17:30 SE 15 16.09 Fair CLR 38.2 14 24% 38 75.92 0.0
04 17:10 SE 17 G 26 16.09 Fair CLR 38.6 13.6 22% 38 75.92 0.0
04 16:50 SE 20 G 26 16.09 Fair CLR 38.9 14 23% 39 75.92 0.0
04 16:30 SE 13 G 30 16.09 Fair CLR 38.7 14 23% 38 75.95 0.0
04 16:10 E 19 G 28 16.09 Fair CLR 38.6 14.5 24% 38 75.95 0.0
04 15:50 SE 17 G 31 16.09 Fair CLR 38.7 14.8 24% 39 75.97 0.0
04 15:30 SE 19 G 33 16.09 Fair CLR 38.6 14.7 24% 39 76 0.0
04 15:10 SE 17 G 31 16.09 Fair CLR 38.2 15.1 25% 38 76.02 0.0
04 14:50 E 13 G 30 16.09 Fair CLR 38 14.9 25% 38 76.02 0.0
04 14:30 SE 22 G 30 16.09 Fair CLR 37.5 15 26% 37 76.02 0.0
04 14:10 S 11 G 26 16.09 Fair CLR 37.1 15.5 28% 37 76.05 0.0
04 13:50 SE 22 G 28 16.09 Fair CLR 36.7 16.7 31% 37 76.05 0.0
04 13:30 SE 11 16.09 Fair CLR 35.9 16.5 32% 36 76.07 0.0
04 13:10 SE 13 16.09 Fair CLR 35.2 16.6 33% 36 76.1 0.0
04 12:50 SE 11 16.09 Fair CLR 34.8 17.3 34.8 23.5 35% 36 76.12 0.0
04 12:30 S 13 16.09 Fair CLR 34.1 17.8 38% 35 76.15 0.0
04 12:10 SE 6 16.09 Fair CLR 33.2 18.1 41% 34 76.15 0.0
04 11:50 SE 15 16.09 Fair CLR 32.8 18.3 42% 34 76.17 0.0
04 11:30 S 13 16.09 Fair CLR 31.8 18.7 46% 33 76.17 0.0
04 11:10 S 13 16.09 Fair CLR 31 18.8 48% 32 76.17 0.0
04 10:50 S 15 16.09 Fair CLR 30.5 19.1 51% 32 76.17 0.0
04 10:30 SW 13 16.09 Fair CLR 29.8 19.2 53% 31 76.17 0.0
04 10:10 S 13 16.09 Fair CLR 28.9 19.4 57% 30 76.17 0.0
04 09:50 S 15 16.09 Fair CLR 28.3 19.5 59% 30 76.15 0.0
04 09:30 S 17 16.09 Fair CLR 27.5 19.5 62% 29 76.17 0.0
04 09:10 S 13 16.09 Fair CLR 26.7 19.5 65% 28 76.15 0.0
04 08:50 S 13 16.09 Fair CLR 26.1 19.6 67% 27 76.12 0.0
04 08:30 S 11 16.09 Fair CLR 25.4 19.5 70% 26 76.12 0.0
04 08:10 S 11 16.09 Fair CLR 24.5 19.5 74% 25 76.12 0.0
04 07:50 S 9 16.09 Fair CLR 24 19.5 76% 25 76.1 0.0
04 07:30 S 13 16.09 Fair CLR 23.5 19.5 78% 76.07 0.0
04 07:10 S 9 16.09 Fair CLR 23.5 19.5 78% 76.07 0.0
04 06:50 S 7 16.09 Fair CLR 23.5 19.5 27.6 23.5 78% 76.07 0.0
04 06:30 S 7 16.09 Fair CLR 23.5 19.5 78% 76.07 0.0
04 06:10 S 9 16.09 Fair CLR 23.8 19.5 77% 76.07 0.0
04 05:50 Calm 16.09 Fair CLR 24.3 19.6 75% 25 76.07 0.0
04 05:30 S 13 16.09 Fair CLR 24.6 19.6 74% 25 76.05 0.0
04 05:10 S 13 16.09 Fair CLR 25 19.7 73% 26 76.05 0.0
04 04:50 S 15 16.09 Fair CLR 25.3 19.7 71% 26 76.05 0.0
04 04:30 S 17 16.09 Fair CLR 25.6 19.8 70% 27 76.07 0.0
04 04:10 S 13 16.09 Fair CLR 25.6 19.7 70% 27 76.07 0.0
04 03:50 SE 11 16.09 Fair CLR 25.7 19.7 70% 27 76.05 0.0
04 03:30 S 11 16.09 Fair CLR 26 19.7 68% 27 76.05 0.0
04 03:10 S 11 16.09 Fair CLR 26.1 19.6 67% 27 76.07 0.0
04 02:50 S 13 G 30 16.09 Fair CLR 26.3 19.5 66% 28 76.07 0.0
04 02:30 S 19 G 26 16.09 Fair CLR 26.5 19.5 65% 28 76.07 0.0
04 02:10 S 20 16.09 Fair CLR 26.7 19.4 64% 28 76.05 0.0
04 01:50 S 24 16.09 Fair CLR 27 19.1 62% 28 76.05 0.0
04 01:30 S 22 16.09 Fair CLR 27 18.7 60% 28 76.05 0.0
04 01:10 S 24 G 31 16.09 Fair CLR 27.2 18.5 59% 28 76.05 0.0
04 00:50 S 30 G 41 16.09 Fair CLR 27.7 18.1 36.6 27.7 56% 29 76.05 0.0
04 00:30 SE 31 G 39 16.09 Fair CLR 28.1 17.8 54% 29 76.02 0.0
04 00:10 SE 31 G 44 16.09 Fair CLR 28.7 17.3 50% 29 76.02 0.0
03 23:50 SE 28 G 39 16.09 Fair CLR 29.1 17 48% 30 76.02 0.0
03 23:30 SE 31 G 39 16.09 Fair CLR 29.5 16.7 46% 30 76.02 0.0
03 23:10 SE 31 G 43 16.09 Fair CLR 30 16.4 44% 30 76.02 0.0
03 22:50 SE 30 G 39 16.09 Fair CLR 30.4 16 42% 30 76 0.0
03 22:30 SE 31 G 39 16.09 Fair CLR 30.8 16 41% 31 76 0.0
03 22:10 SE 30 G 43 16.09 Fair CLR 31.4 16 39% 31 76 0.0
03 21:50 SE 33 G 43 16.09 Fair and Breezy CLR 31.8 16.1 39% 32 75.97 0.0
03 21:30 SE 28 G 37 16.09 Fair CLR 32.5 15.8 37% 32 75.95 0.0
03 21:10 SE 30 G 37 16.09 Fair CLR 33 14.8 33% 33 75.92 0.0
03 20:50 SE 20 16.09 Fair CLR 33 14.6 33% 32 75.92 0.0
03 20:30 SE 24 16.09 Fair CLR 33.9 14.7 31% 33 75.9 0.0
03 20:10 SE 24 16.09 Fair CLR 34.4 14.7 31% 34 75.87 0.0
03 19:50 SE 26 G 33 16.09 Fair CLR 34.9 14.2 29% 34 75.87 0.0
03 19:30 SE 28 G 35 16.09 Fair CLR 35.5 13.8 27% 35 75.84 0.0
03 19:10 SE 22 16.09 Fair CLR 36.3 13.1 25% 35 75.84 0.0
03 18:50 SE 22 G 30 16.09 Fair CLR 37 12.7 39.8 35.8 23% 36 75.84 0.0
03 18:30 SE 24 16.09 Fair CLR 38 12.6 22% 37 75.82 0.0
03 18:10 SE 20 16.09 Fair CLR 38.5 12.8 21% 38 75.82 0.0
03 17:50 S 17 16.09 Partly Cloudy SCT100 39.4 12.3 20% 38 75.82 0.0
03 17:30 S 19 G 28 16.09 Partly Cloudy SCT100 39.4 11.7 19% 38 75.79 0.0
03 17:10 SE 17 G 26 16.09 Fair CLR 39.5 11.8 19% 38 75.82 0.0
03 16:50 S 17 G 26 16.09 Fair CLR 38.8 12 20% 38 75.82 0.0
03 16:30 SE 15 16.09 Fair CLR 39.6 11.4 18% 38 75.84 0.0
03 16:10 SE 13 G 30 16.09 Fair CLR 39.8 12 19% 39 75.84 0.0
03 13:50 SE 15 G 28 16.09 Fair CLR 38.4 14.2 24% 38 76 0.0
03 13:30 S 22 G 30 16.09 Fair CLR 37 14.3 26% 37 76.02 0.0
03 13:10 S 20 G 26 16.09 Fair CLR 37.1 14.2 25% 37 76.05 0.0
03 12:50 S 19 16.09 Fair CLR 35.7 14.6 35.7 26.2 28% 35 76.07 0.0 0.03
03 12:30 S 20 16.09 Fair CLR 34.7 15.6 32% 35 76.1 0.0
03 12:10 S 15 16.09 Fair CLR 32.6 15.8 36% 32 76.12 0.0
03 11:50 S 15 16.09 Fair CLR 32 16.3 39% 32 76.12 0.0
03 11:30 S 20 G 28 16.09 Fair CLR 32 16.4 39% 32 76.12 0.0
03 11:10 SE 19 G 26 16.09 Fair CLR 30.6 17.6 46% 31 76.12 0.0
03 10:50 SE 9 16.09 Fair CLR 29 18.6 53% 30 76.15 0.0
03 10:30 SE 13 16.09 Partly Cloudy SCT065 SCT075 SCT120 27.1 19.8 64% 29 76.15 0.0
03 10:10 SE 7 16.09 Overcast SCT050 BKN065 OVC075 26.5 19.3 65% 28 76.15 0.0
03 09:50 Calm 11.27 Heavy Rain SCT041 BKN075 OVC110 26.9 18.7 61% 28 76.17 0.0 0.03 0.03
03 09:30 S 13 G 19 16.09 Mostly Cloudy BKN110 28.7 16.6 48% 29 76.15 0.0
03 09:10 S 26 G 37 16.09 Mostly Cloudy BKN110 28.2 16.6 49% 29 76.12 0.0
03 08:50 S 30 G 41 16.09 Mostly Cloudy BKN120 28.2 16.5 49% 29 76.12 0.0
03 08:30 S 30 16.09 Partly Cloudy SCT120 27.6 16.5 51% 28 76.12 0.0
03 08:10 S 24 G 39 16.09 Partly Cloudy SCT120 27.6 16.4 51% 28 76.12 0.0
03 07:50 S 28 G 44 16.09 Partly Cloudy SCT120 27.3 16.3 51% 28 76.1 0.0
03 07:30 S 26 G 33 16.09 Mostly Cloudy BKN120 26.8 16.2 52% 27 76.1 0.0
03 07:10 S 24 16.09 Fair CLR 26.7 16.2 53% 27 76.1 0.0
03 06:50 S 22 G 33 16.09 Fair CLR 26.8 16.1 29.1 26.7 52% 27 76.1 0.0
03 06:30 S 28 16.09 Fair CLR 26.8 16.1 52% 27 76.1 0.0
03 06:10 S 20 G 35 16.09 Fair CLR 26.8 16.1 52% 27 76.1 0.0
03 05:50 S 30 G 35 16.09 Fair CLR 26.8 16.1 52% 27 76.1 0.0
03 05:30 S 22 G 33 16.09 Fair CLR 26.9 16.1 52% 27 76.12 0.0
03 05:10 S 30 G 39 16.09 Fair CLR 27.1 16 51% 28 76.12 0.0
03 04:50 S 28 16.09 Fair CLR 27.2 15.8 50% 28 76.12 0.0
03 04:30 S 24 G 35 16.09 Fair CLR 27.4 15.6 49% 28 76.12 0.0
03 04:10 S 28 G 37 16.09 Fair CLR 27.6 15.5 48% 28 76.12 0.0
03 03:50 S 28 G 39 16.09 Fair CLR 27.8 15.3 47% 28 76.12 0.0
03 03:30 S 31 G 39 16.09 Fair CLR 28 15.1 45% 28 76.12 0.0
03 03:10 S 28 G 43 16.09 Fair CLR 28 15.1 45% 28 76.1 0.0
03 02:50 S 28 G 41 16.09 Fair CLR 28.1 15 45% 28 76.1 0.0
03 02:30 S 30 G 39 16.09 Fair CLR 28.2 14.9 44% 28 76.1 0.0
03 02:10 S 26 G 41 16.09 Fair CLR 28.5 14.6 43% 28 76.1 0.0
03 01:50 S 26 G 37 16.09 Fair CLR 28.5 14.3 42% 28 76.1 0.0
03 01:30 S 28 G 35 16.09 Fair CLR 28.6 14.1 41% 28 76.1 0.0
03 01:10 S 28 G 39 16.09 Fair CLR 28.8 14 40% 28 76.1 0.0
03 00:50 S 30 G 41 16.09 Fair CLR 29.2 13.9 36.5 29.2 39% 29 76.07 0.0
03 00:30 S 30 G 37 16.09 Fair CLR 29.3 13.5 38% 29 76.07 0.0
03 00:10 S 30 16.09 Fair CLR 29.7 13.3 37% 29 76.07 0.0
02 23:50 SE 30 G 39 16.09 Fair CLR 30 12.9 35% 29 76.07 0.0
02 23:30 S 30 G 39 16.09 Fair CLR 30.5 12.5 33% 30 76.07 0.0
02 23:10 S 30 G 37 16.09 Fair CLR 31 12.3 32% 30 76.07 0.0
02 22:50 S 28 16.09 Fair CLR 31.1 12.3 32% 30 76.07 0.0
02 22:30 SE 26 16.09 Fair CLR 31 12 31% 30 76.07 0.0
02 22:10 SE 22 16.09 Fair CLR 31.1 11.4 30% 30 76.07 0.0
02 21:50 SE 20 16.09 Fair CLR 31.1 10.6 28% 30 76.05 0.0
02 21:30 SE 20 16.09 Fair CLR 31.7 10.5 27% 30 76.05 0.0
02 21:10 SE 17 16.09 Fair CLR 31.7 10.7 27% 30 76.02 0.0
02 20:50 SE 17 16.09 Fair CLR 32.3 10.7 26% 31 76.02 0.0
02 20:30 SE 17 16.09 Fair CLR 32.7 11 26% 31 76 0.0
02 20:10 SE 19 16.09 Fair CLR 33.2 11.1 26% 32 76 0.0
02 19:50 SE 19 16.09 Fair CLR 34.1 11.2 25% 33 75.97 0.0
02 19:30 S 22 16.09 Fair CLR 34.9 11.1 23% 33 76 0.0
02 19:10 S 15 G 31 16.09 Fair CLR 35.8 11.2 22% 34 76 0.0
02 18:50 S 20 G 30 16.09 Fair CLR 36.8 11.1 38.9 36.6 21% 35 75.97 0.0
02 18:30 S 26 G 35 16.09 Partly Cloudy SCT100 37.3 11 20% 36 75.97 0.0
02 18:10 S 30 G 35 16.09 Fair CLR 38 10.9 19% 37 75.97 0.0
02 17:50 S 26 G 33 16.09 Fair CLR 38.1 11.1 20% 37 75.97 0.0
02 17:30 S 17 16.09 Partly Cloudy SCT110 38.3 10.7 19% 37 76 0.0
02 17:10 S 24 16.09 Partly Cloudy SCT110 38.4 11 19% 37 76 0.0
02 16:50 S 15 16.09 Partly Cloudy SCT100 38.3 10.9 19% 37 76 0.0
02 16:30 S 17 G 30 16.09 Mostly Cloudy BKN110 38.4 10.9 19% 37 76.02 0.0
02 16:10 S 19 G 28 16.09 Mostly Cloudy SCT100 BKN120 37.3 10.9 20% 36 76.02 0.0
02 15:50 S 15 16.09 Mostly Cloudy BKN095 37.1 10.7 20% 36 76.05 0.0
02 15:30 S 15 G 30 16.09 Partly Cloudy SCT095 37.1 10.9 20% 36 76.07 0.0
02 15:10 S 26 G 31 16.09 Fair CLR 37.8 10.6 19% 36 76.1 0.0
02 14:50 S 19 G 31 16.09 Fair CLR 38.9 10.1 17% 37 76.1 0.0
02 14:30 S 13 G 31 16.09 Partly Cloudy SCT095 SCT120 38.4 10.2 18% 37 76.12 0.0
02 14:10 S 13 G 28 16.09 Partly Cloudy SCT095 37 10.8 20% 35 76.15 0.0
02 13:50 SW 22 G 31 16.09 Partly Cloudy SCT095 36.9 10.6 20% 35 76.17 0.0
02 13:30 S 15 G 28 16.09 Fair CLR 37.2 10.7 20% 36 76.2 0.0
02 13:10 S 24 G 35 16.09 Partly Cloudy SCT100 37.7 10.9 20% 36 76.23 0.0
02 12:50 S 17 G 30 16.09 Partly Cloudy SCT090 37.6 11.2 37.8 25.5 20% 36 76.25 0.0
02 12:30 S 22 G 30 16.09 Fair CLR 37.1 12.3 22% 36 76.25 0.0
02 12:10 S 22 G 37 16.09 Fair CLR 36.7 11.8 22% 35 76.28 0.0
02 11:50 S 28 16.09 Fair CLR 36.2 12.1 23% 35 76.28 0.0
02 11:30 S 31 G 43 16.09 Fair CLR 35.6 12.5 25% 34 76.3 0.0
02 11:10 S 24 16.09 Fair CLR 35 12.9 26% 34 76.3 0.0
02 10:50 S 24 G 33 16.09 Fair CLR 34 13.6 29% 33 76.3 0.0
02 10:30 S 28 G 35 16.09 Fair CLR 33.2 13.8 31% 32 76.33 0.0
02 10:10 S 35 16.09 Fair and Breezy CLR 32.2 13.7 32% 31 76.33 0.0
02 09:50 S 30 G 37 16.09 Fair CLR 31.2 13.9 35% 30 76.33 0.0
02 09:30 S 31 G 39 16.09 Fair CLR 30.6 14 36% 30 76.33 0.0
02 09:10 S 30 G 35 16.09 Fair CLR 29.4 14.5 40% 29 76.33 0.0
02 08:55 S 26 G 39 16.09 Fair CLR 28.7 15 43% 29 76.33 0.0
02 08:30 S 30 G 41 16.09 Fair CLR 27.6 15 46% 28 76.33 0.0
02 08:10 S 30 16.09 Fair CLR 26.5 15 49% 27 76.3 0.0
02 07:50 S 24 16.09 Fair CLR 26.1 15 50% 27 76.3 0.0
02 07:30 S 20 16.09 Fair CLR 25.7 14.8 51% 26 76.3 0.0
02 07:10 S 19 16.09 Fair CLR 25.6 14.8 51% 26 76.28 0.0
02 06:50 S 19 G 28 16.09 Fair CLR 25.7 14.7 28.6 25.7 51% 26 76.28 0.0
02 06:35 S 20 16.09 Fair CLR 26 14.6 49% 27 76.28 0.0
02 06:10 S 24 16.09 Fair CLR 26.1 14.6 49% 27 76.25 0.0
02 05:50 S 20 G 30 16.09 Fair CLR 26.2 14.5 49% 27 76.28 0.0
02 05:30 S 20 16.09 Fair CLR 26.5 14.3 47% 27 76.28 0.0
02 05:10 S 22 16.09 Fair CLR 26.5 14.1 47% 27 76.28 0.0
02 04:50 S 22 16.09 Fair CLR 26.6 14 46% 27 76.28 0.0
02 04:30 S 19 G 31 16.09 Partly Cloudy SCT110 26.9 13.6 44% 27 76.28 0.0
02 04:10 S 22 G 30 16.09 Mostly Cloudy BKN110 27 13.5 43% 27 76.28 0.0
02 03:50 S 20 16.09 Mostly Cloudy BKN110 27 13.1 42% 27 76.28 0.0
02 03:30 S 26 16.09 Partly Cloudy SCT110 27.1 12.8 41% 27 76.25 0.0
02 03:10 S 24 16.09 Fair CLR 27 12.5 41% 27 76.25 0.0
02 02:50 S 20 16.09 Fair CLR 27.1 12.2 40% 27 76.25 0.0
Date Time (cdt) Wind (kph) Vis. (km) Weather Sky Cond. Air Dwpt Max. Min. Relative Humidity Wind Chill (°C) Heat Index (°C) altimeter (cm) sea level (mb) 1 hr 3 hr 6 hr
6 hour
Temperature (ºC) Pressure Precipitation (cm)